| time (UTC) | temp C | wind direction | speed KPH | gust KPH | rain 1hr cm | rain 24hr cm | rain mn cm | humidity % | barometer mb |
| 20260505171522 | 17 | 47 | 0.0 | 4.8 | 0.00 | 1.75 | 1.75 | 92 | 1006.4 |
| 20260505170020 | 17 | 352 | 0.0 | 3.2 | 0.00 | 1.75 | 1.75 | 93 | 1006.6 |
| 20260505164514 | 17 | 313 | 0.0 | 11.3 | 0.00 | 1.75 | 1.75 | 93 | 1006.2 |
| 20260505163021 | 17 | 319 | 0.0 | 3.2 | 0.00 | 1.75 | 1.75 | 93 | 1006.1 |
| 20260505161518 | 17 | 282 | 0.0 | 3.2 | 0.00 | 1.75 | 1.75 | 93 | 1006.1 |
| 20260505153016 | 16 | 324 | 0.0 | 6.4 | 0.00 | 1.75 | 1.75 | 95 | 1005.8 |
| 20260505151519 | 16 | 64 | 0.0 | 3.2 | 0.00 | 1.75 | 1.75 | 95 | 1006.0 |
| 20260505124528 | 15 | 57 | 1.6 | 3.2 | 0.00 | 1.73 | 1.73 | 95 | 1006.0 |
| 20260505123026 | 15 | 193 | 0.0 | 1.6 | 0.00 | 1.73 | 1.73 | 95 | 1005.7 |
| 20260505121517 | 15 | 193 | 0.0 | 1.6 | 0.00 | 1.73 | 1.73 | 95 | 1005.4 |
| 20260505120021 | 15 | 193 | 0.0 | 1.6 | 0.00 | 1.73 | 1.73 | 95 | 1005.4 |
| 20260505114519 | 15 | 254 | 0.0 | 1.6 | 0.00 | 1.73 | 1.73 | 95 | 1005.2 |
| 20260505113020 | 15 | 254 | 0.0 | 1.6 | 0.03 | 1.73 | 1.73 | 95 | 1005.0 |
| 20260505111511 | 15 | 254 | 0.0 | 1.6 | 0.08 | 1.73 | 1.73 | 95 | 1005.3 |
| 20260505101518 | 15 | 199 | 0.0 | 4.8 | 0.33 | 1.65 | 1.65 | 95 | 1006.5 |
| 20260505100021 | 15 | 304 | 0.0 | 3.2 | 0.38 | 1.55 | 1.55 | 95 | 1006.8 |
| 20260505094506 | 15 | 77 | 0.0 | 3.2 | 0.41 | 1.47 | 1.47 | 95 | 1006.5 |
| 20260505093025 | 15 | 102 | 0.0 | 3.2 | 0.38 | 1.40 | 1.40 | 95 | 1006.9 |
| 20260505091510 | 15 | 311 | 0.0 | 4.8 | 0.38 | 1.32 | 1.32 | 94 | 1006.1 |
| 20260505090004 | 15 | 352 | 1.6 | 3.2 | 0.46 | 1.17 | 1.17 | 94 | 1006.0 |
| 20260505084506 | 15 | 126 | 1.6 | 4.8 | 0.97 | 1.09 | 1.09 | 94 | 1005.9 |
| 20260505083008 | 15 | 117 | 0.0 | 4.8 | 0.94 | 1.02 | 1.02 | 94 | 1006.4 |
| 20260505081507 | 15 | 266 | 0.0 | 4.8 | 0.89 | 0.94 | 0.94 | 94 | 1006.4 |
| 20260505080008 | 15 | 96 | 1.6 | 4.8 | 0.69 | 0.71 | 0.71 | 93 | 1006.9 |
| 20260505074508 | 15 | 34 | 1.6 | 4.8 | 0.13 | 0.13 | 0.13 | 93 | 1006.6 |
| 20260505073008 | 15 | 132 | 0.0 | 3.2 | 0.08 | 0.08 | 0.08 | 92 | 1006.1 |
| 20260505071510 | 15 | 171 | 0.0 | 3.2 | 0.05 | 0.05 | 0.05 | 90 | 1006.4 |
| 20260505070013 | 15 | 292 | 1.6 | 3.2 | 0.03 | 0.03 | 0.03 | 90 | 1006.2 |
| 20260505064517 | 15 | 319 | 0.0 | 1.6 | 0.00 | 0.00 | 0.00 | 89 | 1005.9 |
| 20260505063016 | 15 | 319 | 0.0 | 1.6 | 0.00 | 0.00 | 0.00 | 88 | 1006.4 |
| 20260505061507 | 15 | 319 | 0.0 | 3.2 | 0.00 | 0.00 | 0.00 | 88 | 1006.6 |
| 20260505060023 | 15 | 324 | 0.0 | 1.6 | 0.00 | 0.00 | 0.00 | 88 | 1006.7 |
| 20260505054531 | 15 | 324 | 0.0 | 1.6 | 0.00 | 0.00 | 0.00 | 89 | 1006.4 |
| 20260505053018 | 14 | 323 | 0.0 | 1.6 | 0.00 | 0.00 | 0.00 | 90 | 1006.4 |
| 20260505051521 | 14 | 323 | 0.0 | 3.2 | 0.00 | 0.00 | 0.00 | 89 | 1006.1 |
| 20260505041521 | 14 | 31 | 0.0 | 1.6 | 0.00 | 0.00 | 0.00 | 87 | 1006.8 |
| 20260505040025 | 15 | 72 | 0.0 | 1.6 | 0.00 | 0.00 | 0.00 | 87 | 1007.1 |
| 20260505034514 | 15 | 134 | 0.0 | 1.6 | 0.00 | 0.00 | 0.00 | 85 | 1007.2 |
| 20260505033021 | 15 | 155 | 0.0 | 0.0 | 0.00 | 0.00 | 0.00 | 83 | 1007.3 |
| 20260505031519 | 15 | 155 | 0.0 | 0.0 | 0.00 | 0.00 | 0.00 | 82 | 1007.4 |
| 20260505030025 | 16 | 150 | 0.0 | 1.6 | 0.00 | 0.00 | 0.00 | 80 | 1007.4 |
| 20260505024510 | 16 | 146 | 0.0 | 1.6 | 0.00 | 0.00 | 0.00 | 77 | 1007.3 |
| 20260505023018 | 17 | 142 | 0.0 | 0.0 | 0.00 | 0.00 | 0.00 | 74 | 1007.2 |
| 20260505021524 | 18 | 142 | 0.0 | 1.6 | 0.00 | 0.00 | 0.00 | 72 | 1006.9 |
| 20260505020022 | 19 | 142 | 0.0 | 1.6 | 0.00 | 0.00 | 0.00 | 66 | 1006.7 |
| 20260505014522 | 20 | 178 | 0.0 | 4.8 | 0.00 | 0.00 | 0.00 | 62 | 1006.4 |
| 20260505013017 | 20 | 213 | 0.0 | 4.8 | 0.00 | 0.00 | 0.00 | 61 | 1006.0 |
| 20260505011519 | 21 | 152 | 0.0 | 8.0 | 0.00 | 0.00 | 0.00 | 57 | 1005.9 |
| 20260505010024 | 22 | 193 | 3.2 | 19.3 | 0.00 | 0.00 | 0.00 | 55 | 1005.8 |
| 20260505004538 | 22 | 163 | 3.2 | 11.3 | 0.00 | 0.00 | 0.00 | 55 | 1005.8 |
| 20260505003025 | 22 | 273 | 1.6 | 20.9 | 0.00 | 0.00 | 0.00 | 54 | 1005.7 |
| 20260505001515 | 22 | 275 | 4.8 | 16.1 | 0.00 | 0.00 | 0.00 | 53 | 1005.7 |
| 20260505000021 | 23 | 189 | 1.6 | 9.7 | 0.00 | 0.00 | 0.00 | 54 | 1005.7 |
| 20260504234527 | 23 | 254 | 3.2 | 16.1 | 0.00 | 0.00 | 0.00 | 51 | 1005.6 |
| 20260504233020 | 24 | 167 | 3.2 | 11.3 | 0.00 | 0.00 | 0.00 | 51 | 1005.6 |
| 20260504231532 | 24 | 165 | 4.8 | 14.5 | 0.00 | 0.00 | 0.00 | 49 | 1005.7 |
| 20260504230022 | 25 | 333 | 4.8 | 16.1 | 0.00 | 0.00 | 0.00 | 48 | 1005.6 |
| 20260504224522 | 25 | 244 | 1.6 | 17.7 | 0.00 | 0.00 | 0.00 | 49 | 1005.8 |
| 20260504223022 | 25 | 250 | 3.2 | 11.3 | 0.00 | 0.00 | 0.00 | 48 | 1005.8 |
| 20260504221523 | 25 | 196 | 4.8 | 16.1 | 0.00 | 0.00 | 0.00 | 46 | 1006.1 |
| 20260504220024 | 25 | 179 | 4.8 | 19.3 | 0.00 | 0.00 | 0.00 | 48 | 1006.1 |
| 20260504214534 | 25 | 206 | 8.0 | 17.7 | 0.00 | 0.00 | 0.00 | 45 | 1006.1 |
| 20260504213029 | 25 | 97 | 4.8 | 22.5 | 0.00 | 0.00 | 0.00 | 45 | 1006.4 |
| 20260504211526 | 26 | 157 | 4.8 | 16.1 | 0.00 | 0.00 | 0.00 | 45 | 1006.5 |
| 20260504210024 | 26 | 136 | 4.8 | 16.1 | 0.00 | 0.00 | 0.00 | 43 | 1006.7 |
| 20260504204550 | 26 | 201 | 3.2 | 19.3 | 0.00 | 0.00 | 0.00 | 45 | 1006.8 |
| 20260504203029 | 26 | 179 | 6.4 | 19.3 | 0.00 | 0.00 | 0.00 | 43 | 1006.9 |
| 20260504201528 | 26 | 328 | 8.0 | 20.9 | 0.00 | 0.00 | 0.00 | 42 | 1007.2 |
| 20260504200014 | 26 | 162 | 8.0 | 20.9 | 0.00 | 0.00 | 0.00 | 43 | 1007.4 |
| 20260504194513 | 26 | 132 | 8.0 | 22.5 | 0.00 | 0.00 | 0.00 | 44 | 1007.4 |
| 20260504193017 | 26 | 360 | 6.4 | 24.1 | 0.00 | 0.00 | 0.00 | 45 | 1007.7 |
| 20260504191511 | 26 | 232 | 8.0 | 29.0 | 0.00 | 0.00 | 0.00 | 46 | 1007.6 |
| 20260504190017 | 26 | 279 | 3.2 | 19.3 | 0.00 | 0.00 | 0.00 | 45 | 1007.8 |
| 20260504184516 | 26 | 352 | 8.0 | 27.4 | 0.00 | 0.00 | 0.00 | 44 | 1007.9 |
| 20260504183018 | 25 | 225 | 6.4 | 22.5 | 0.00 | 0.00 | 0.00 | 48 | 1008.2 |
| 20260504181512 | 25 | 175 | 4.8 | 24.1 | 0.00 | 0.00 | 0.00 | 47 | 1008.2 |
| 20260504180014 | 25 | 293 | 4.8 | 22.5 | 0.00 | 0.00 | 0.00 | 50 | 1008.3 |
| 20260504174523 | 24 | 151 | 4.8 | 20.9 | 0.00 | 0.00 | 0.00 | 49 | 1008.8 |
| 20260504173020 | 24 | 148 | 6.4 | 29.0 | 0.00 | 0.00 | 0.00 | 47 | 1008.9 |